Station Historical Data
 
Daily Summary for September 22, 2017 Units:  English    Metric   Both
« Previous Day
Next Day »
Daily Weekly Monthly Yearly Custom
  Current: High: Low: Average:
Temperature: 69.3 °F 69.3 °F 57.4 °F 61.3 °F
Dew Point: 60.7 °F 60.7 °F 54.5 °F 57.1 °F
Humidity: 74% 91% 74% 86%
Wind Speed: 0.0mph 0.0mph 0.0mph 0mph
Wind Gust: 0.0mph 0.0mph - -
WindCalm - - North
Pressure: 30.13 in 30.14 in 30.09 in -
Precipitation: 0.00 in      
Historical Graphs
 
 
Tabular Data for September 22, 2017
Time Temperature Dew Point Pressure Wind Wind Speed Wind Gust Humidity Rainfall Rate (Hourly)
00:04 66.3 °F 60.3 °F 30.10 in Calm     81% 0.00 in
00:09 66.0 °F 60.0 °F 30.10 in Calm     81% 0.00 in
00:14 65.9 °F 59.9 °F 30.10 in Calm     81% 0.00 in
00:19 65.6 °F 60.0 °F 30.10 in Calm     82% 0.00 in
00:24 65.5 °F 59.9 °F 30.10 in Calm     82% 0.00 in
00:29 65.5 °F 59.9 °F 30.10 in Calm     82% 0.00 in
00:34 65.3 °F 59.3 °F 30.10 in Calm     81% 0.00 in
00:39 65.0 °F 59.4 °F 30.10 in Calm     82% 0.00 in
00:44 64.7 °F 59.1 °F 30.10 in Calm     82% 0.00 in
00:49 64.5 °F 58.9 °F 30.10 in Calm     82% 0.00 in
00:54 64.3 °F 58.7 °F 30.10 in Calm     82% 0.00 in
00:59 64.1 °F 58.8 °F 30.10 in Calm     83% 0.00 in
01:04 63.8 °F 58.5 °F 30.10 in Calm     83% 0.00 in
01:09 63.5 °F 58.2 °F 30.10 in Calm     83% 0.00 in
01:14 63.4 °F 58.5 °F 30.10 in Calm     84% 0.00 in
01:19 63.2 °F 58.3 °F 30.10 in Calm     84% 0.00 in
01:24 63.0 °F 58.1 °F 30.10 in Calm     84% 0.00 in
01:29 62.8 °F 57.9 °F 30.10 in Calm     84% 0.00 in
01:34 62.8 °F 58.2 °F 30.09 in Calm     85% 0.00 in
01:39 62.9 °F 58.3 °F 30.10 in Calm     85% 0.00 in
01:44 63.0 °F 58.4 °F 30.10 in Calm     85% 0.00 in
01:49 62.9 °F 58.3 °F 30.09 in Calm     85% 0.00 in
01:54 63.0 °F 58.4 °F 30.09 in Calm     85% 0.00 in
01:59 62.9 °F 58.3 °F 30.09 in Calm     85% 0.00 in
02:04 62.9 °F 58.3 °F 30.09 in Calm     85% 0.00 in
02:09 62.9 °F 58.3 °F 30.09 in Calm     85% 0.00 in
02:14 62.9 °F 58.0 °F 30.09 in Calm     84% 0.00 in
02:19 62.6 °F 57.7 °F 30.09 in Calm     84% 0.00 in
02:24 62.5 °F 57.9 °F 30.09 in Calm     85% 0.00 in
02:29 62.5 °F 57.9 °F 30.09 in Calm     85% 0.00 in
02:34 62.5 °F 57.9 °F 30.09 in Calm     85% 0.00 in
02:39 62.4 °F 57.8 °F 30.10 in Calm     85% 0.00 in
02:44 62.1 °F 57.5 °F 30.10 in Calm     85% 0.00 in
02:49 61.8 °F 57.2 °F 30.10 in Calm     85% 0.00 in
02:54 61.6 °F 57.0 °F 30.10 in Calm     85% 0.00 in
02:59 61.3 °F 57.1 °F 30.09 in Calm     86% 0.00 in
03:04 61.3 °F 57.1 °F 30.09 in Calm     86% 0.00 in
03:09 61.1 °F 56.9 °F 30.09 in Calm     86% 0.00 in
03:14 61.0 °F 56.8 °F 30.10 in Calm     86% 0.00 in
03:19 60.7 °F 56.5 °F 30.09 in Calm     86% 0.00 in
03:24 60.7 °F 56.5 °F 30.09 in Calm     86% 0.00 in
03:29 60.6 °F 56.7 °F 30.09 in Calm     87% 0.00 in
03:34 60.5 °F 56.3 °F 30.09 in Calm     86% 0.00 in
03:39 60.3 °F 56.4 °F 30.09 in Calm     87% 0.00 in
03:44 60.4 °F 56.5 °F 30.09 in Calm     87% 0.00 in
03:49 60.5 °F 56.6 °F 30.09 in Calm     87% 0.00 in
03:54 60.2 °F 56.3 °F 30.09 in Calm     87% 0.00 in
03:59 60.0 °F 56.1 °F 30.09 in Calm     87% 0.00 in
04:04 59.8 °F 55.9 °F 30.09 in Calm     87% 0.00 in
04:09 59.6 °F 55.7 °F 30.09 in Calm     87% 0.00 in
04:14 59.5 °F 55.6 °F 30.10 in Calm     87% 0.00 in
04:19 59.3 °F 55.7 °F 30.10 in Calm     88% 0.00 in
04:24 59.1 °F 55.5 °F 30.10 in Calm     88% 0.00 in
04:29 58.9 °F 55.4 °F 30.10 in Calm     88% 0.00 in
04:34 58.9 °F 55.4 °F 30.10 in Calm     88% 0.00 in
04:39 58.8 °F 55.6 °F 30.10 in Calm     89% 0.00 in
04:44 58.7 °F 55.5 °F 30.10 in Calm     89% 0.00 in
04:49 58.6 °F 55.4 °F 30.11 in Calm     89% 0.00 in
04:54 58.6 °F 55.4 °F 30.11 in Calm     89% 0.00 in
04:59 58.4 °F 55.2 °F 30.11 in Calm     89% 0.00 in
05:04 58.3 °F 55.1 °F 30.11 in Calm     89% 0.00 in
05:09 58.3 °F 55.4 °F 30.10 in Calm     90% 0.00 in
05:14 58.3 °F 55.4 °F 30.10 in Calm     90% 0.00 in
05:19 58.2 °F 55.3 °F 30.11 in Calm     90% 0.00 in
05:24 58.0 °F 55.1 °F 30.11 in Calm     90% 0.00 in
05:29 57.9 °F 55.0 °F 30.11 in Calm     90% 0.00 in
05:34 57.8 °F 54.9 °F 30.11 in Calm     90% 0.00 in
05:39 57.6 °F 54.7 °F 30.11 in Calm     90% 0.00 in
05:44 57.4 °F 54.5 °F 30.11 in Calm     90% 0.00 in
05:49 57.5 °F 54.6 °F 30.11 in Calm     90% 0.00 in
05:54 57.5 °F 54.6 °F 30.11 in Calm     90% 0.00 in
05:59 57.5 °F 54.6 °F 30.11 in Calm     90% 0.00 in
06:04 57.4 °F 54.5 °F 30.11 in Calm     90% 0.00 in
06:09 57.4 °F 54.5 °F 30.11 in Calm     90% 0.00 in
06:14 57.4 °F 54.8 °F 30.11 in Calm     91% 0.00 in
06:19 57.6 °F 55.0 °F 30.11 in Calm     91% 0.00 in
06:24 57.6 °F 54.7 °F 30.11 in Calm     90% 0.00 in
06:29 57.8 °F 55.2 °F 30.11 in Calm     91% 0.00 in
06:34 58.1 °F 55.5 °F 30.12 in Calm     91% 0.00 in
06:39 58.3 °F 55.7 °F 30.12 in Calm     91% 0.00 in
06:44 58.3 °F 55.7 °F 30.12 in Calm     91% 0.00 in
06:49 58.5 °F 55.9 °F 30.12 in Calm     91% 0.00 in
06:54 58.4 °F 55.5 °F 30.13 in Calm     90% 0.00 in
06:59 58.4 °F 55.8 °F 30.13 in Calm     91% 0.00 in
07:04 58.5 °F 55.9 °F 30.13 in Calm     91% 0.00 in
07:09 58.7 °F 56.1 °F 30.13 in Calm     91% 0.00 in
07:14 58.8 °F 55.9 °F 30.13 in Calm     90% 0.00 in
07:19 58.8 °F 55.9 °F 30.14 in Calm     90% 0.00 in
07:24 58.9 °F 56.0 °F 30.13 in Calm     90% 0.00 in
07:29 59.1 °F 56.2 °F 30.13 in Calm     90% 0.00 in
07:34 59.4 °F 56.5 °F 30.14 in Calm     90% 0.00 in
07:39 59.8 °F 56.6 °F 30.14 in Calm     89% 0.00 in
07:44 60.3 °F 57.0 °F 30.14 in Calm     89% 0.00 in
07:49 60.7 °F 57.1 °F 30.14 in Calm     88% 0.00 in
07:54 61.1 °F 57.2 °F 30.14 in Calm     87% 0.00 in
07:59 61.3 °F 57.1 °F 30.14 in Calm     86% 0.00 in
08:04 61.6 °F 57.4 °F 30.14 in Calm     86% 0.00 in
08:09 62.1 °F 57.5 °F 30.14 in Calm     85% 0.00 in
08:14 62.5 °F 57.6 °F 30.14 in Calm     84% 0.00 in
08:19 63.0 °F 58.1 °F 30.14 in Calm     84% 0.00 in
08:24 63.4 °F 58.1 °F 30.14 in Calm     83% 0.00 in
08:29 64.1 °F 58.5 °F 30.14 in Calm     82% 0.00 in
08:34 64.8 °F 58.8 °F 30.14 in Calm     81% 0.00 in
08:39 65.3 °F 58.6 °F 30.14 in Calm     79% 0.00 in
08:44 65.8 °F 59.1 °F 30.14 in Calm     79% 0.00 in
08:49 66.2 °F 58.8 °F 30.14 in Calm     77% 0.00 in
08:54 67.0 °F 59.5 °F 30.14 in Calm     77% 0.00 in
08:59 67.7 °F 59.5 °F 30.13 in Calm     75% 0.00 in
09:04 68.1 °F 59.9 °F 30.13 in Calm     75% 0.00 in
09:09 69.0 °F 60.4 °F 30.13 in Calm     74% 0.00 in
09:14 69.3 °F 60.7 °F 30.13 in Calm     74% 0.00 in
Buffalo, New York, USA
Compliments of Weather Underground - 1.5 mb